sat.trackr.live / text

‹ back to catalog

ONEWEB-0367

NORAD 49293 · 2021-090Q

PAYLOAD ACTIVE UNKNOWN

§ Identity

Operator
Country
UK
Launch date
2021-10-14
Launch site
VOSTO
Launch vehicle
Mass (kg)
RCS (m²)

Purposes: comms

External: N2YO · Heavens-Above · Gunter

§ Orbital elements

Epoch: 2026-09-19T22:26:14.940096Z

Period
109.03 min
Inclination
87.9142°
Eccentricity
0.0001877
Mean motion
13.20772874 rev/d
Perigee alt
1,180.4 km
Apogee alt
1,183.2 km
Semi-major
7,559.9 km
B*
1.6260e-4
RAAN
255.5397°
Arg perigee
83.2880°
Mean anomaly
276.8467°
Rev number
24,233

§ Raw data

ONEWEB-03671 49293U 21090Q   26262.93489514  .00000079  00000+0  16260-3 0  99932 49293  87.9142 255.5397 0001877  83.2880 276.8467 13.20772874242333

JSON: /api/v1/satellites/49293 · /tle

For live sub-satellite position, see the globe view (requires WebGL).

§ Visibility from observer

Set your observer location to see the next 7 days of passes ≥ 10°. The values pass through the URL so the page stays shareable.

No JS? Fill the form by hand. The geolocation button needs JavaScript.